weather.gov     
National Weather Service

Terminal Aerodrome Forecast
NWS Homepage
This page is being discontinued on March 12, 2014.
The same data is available at this site. Please update your bookmarks.
Thank you, and we apologize for the inconvenience.
Please send an email to SR-SRH.Webmaster@noaa.gov with any concerns.


Current Version
Previous Version:    01  02  03  04  05  06  07  08  09  10  11  12  13  14  15  16  17  18  19  20  21  22  23  24  25  26  27  28  29  30  
   31  32  33  
[Printable]
618
FTUS42 KTBW 221900 AAA
TAFFMY
TAF AMD
KFMY 221924Z 2219/2318 25006KT P6SM VCTS SCT040CB BKN100
      TEMPO 2219/2221 5SM -RA BKN040
     FM222100 25006KT P6SM SCT040 SCT130 BKN250
     FM230100 VRB03KT P6SM SCT035 BKN250
     FM231400 19005KT P6SM SCT020 SCT250=


U.S. Dept. of Commerce
NOAA National Weather Service
1325 East West Highway
Silver Spring, MD 20910
E-mail: w-nws.webmaster@noaa.gov
Page last modified: May 16, 2007
NATIONAL WEATHER SERVICE: for Safety, for Work, for Fun - FOR LIFE